Regional Weather Roundup
Issued by NWS Charleston, SC

Current Version | Previous Version | Graphics & Text | Print | Product List | Glossary On
Versions: 1 2 3 4 5 6 7 8 9 10 11 12 13 14 15 16 17 18 19 20 21 22 23 24 25 26 27 28 29 30 31 32 33 34 35 36 37 38 39 40 41 42 43 44 45 46 47 48 49 50
000
ASUS42 KCHS 231327
RWRCHS

REGIONAL WEATHER ROUNDUP
NATIONAL WEATHER SERVICE CHARLESTON SC
900 AM EDT SAT SEP 23 2017

NOTE: "FAIR" INDICATES FEW OR NO CLOUDS BELOW 12,000 FEET WITH NO
SIGNIFICANT WEATHER AND/OR OBSTRUCTIONS TO VISIBILITY.

NOT ALL STATIONS ARE QUALITY CONTROLLED. USE DATA WITH CAUTION...
ESPECIALLY DEWPOINT OBSERVATIONS.

SCZ027-030-031-034>040-042>050-231400-
...SOUTHEAST SOUTH CAROLINA...

CITY           SKY/WX    TMP DP  RH WIND       PRES   REMARKS
N CHARLESTON   MOSUNNY   74  73  97 NE6       30.02R
WATERFRONT PRK   N/A     76  74  93 NE7       29.86R
JOHNS ISLAND   FAIR      77  75  94 N6        30.02R
PINOPOLIS        N/A     73  73 100 NE8       29.95R
MONCKS CORNER    N/A     72  70  94 NE6       30.03S FOG
SUMMERVILLE    FOG       72  72 100 N5        30.05R VSB 1/4
BEAUFORT MCAS  PTSUNNY   77  75  93 NE7       30.02R
BEAUFORT ARPT  FAIR      75  73  94 NE10      30.01R
HILTON HEAD IS MOSUNNY   77  75  94 NE10      30.02R
WALTERBORO     MOSUNNY   72  70  94 CALM      30.04R
ALLENDALE      NOT AVBL

...SOUTHERN MIDLANDS AND PEE DEE...

CITY           SKY/WX    TMP DP  RH WIND       PRES   REMARKS
GEORGETOWN     FAIR      72  70  94 CALM      30.04R FOG
KINGSTREE      FAIR      72  70  94 CALM      30.04S
ORANGEBURG     SUNNY     75  69  81 CALM      30.04R
BARNWELL       FAIR      73  72  94 N3        30.04S
AIKEN          FAIR      70  68  94 CALM      30.09R
MANNING        FAIR      72  70  94 MISG      30.04R
COLUMBIA       MOSUNNY   72  68  87 CALM      30.04R
SUMTER         SUNNY     74  69  84 CALM      30.02R
FLORENCE       SUNNY     73  70  90 N3        30.05R
MYRTLE BEACH   CLOUDY    72  71  97 N5        30.05R FOG
N MYRTLE BEACH FOG       72  71  97 N6        30.04R VSB 1/2

$$

GAZ063-065-086>088-099>101-113>116-118-119-134>141-150-231400-
...SOUTHEAST GEORGIA...

CITY           SKY/WX    TMP DP  RH WIND       PRES   REMARKS
SAVANNAH ARPT  FOG       72  72 100 N6        30.02R VSB 1/2
HUNTER AAF     SUNNY     77  73  88 N3        29.99R
FORT STEWART   CLOUDY    72  72 100 N5        29.99R FOG
STATESBORO     SUNNY     73  73 100 NE3       30.03S
SYLVANIA       MOSUNNY   74  74  99 NE6       30.04R
CLAXTON        PTSUNNY   73  72  95 CALM      30.03R FOG

...CSRA...CENTRAL AND FAR SOUTHEAST GEORGIA...

CITY           SKY/WX    TMP DP  RH WIND       PRES   REMARKS
THOMSON        CLOUDY    68  67  96 CALM      30.11R FOG
AUGUSTA-BUSH   SUNNY     74  70  87 CALM      30.04R
AUGUSTA-DANIEL SUNNY     75  70  84 CALM      30.05S
SWAINSBORO     FAIR      73  73 100 NE5       30.04S
VIDALIA        SUNNY     72  72 100 NE7       30.04R
EASTMAN        FAIR      70  70  98 CALM      30.05S
HAZLEHURST     FAIR      74  69  84 CALM      30.02R
ALMA           MOSUNNY   75  71  87 VRB5      30.01R FOG
WAYCROSS       PTSUNNY   72  69  90 NE7       30.00S FOG
JESUP          NOT AVBL
BAXLEY         FAIR      72  72 100 NE6       30.01S
BRUNSWICK      CLOUDY    73  72  94 N6        30.00R FOG
SAINT SIMONS   SUNNY     80  75  84 N7        29.98R

$$

SCZ027-028-034-036>038-045-046-048>050-GAZ119-141-231400-
...LAKE AND SUPPLEMENTAL COASTAL OBSERVATIONS...

STATION/POSITION TIME  TEMP    WIND        PRES    WAVE   SWELL
                       AIR SEA DIR/SP/G            HT/PER HT/PER/DIR
                 (UTC) (F)     (DEG/KT/KT) (MB)    (FT/S) (FT/S/D)
WINYAH BAY       1145   72     350/  5     1016.0
LAKE MURRAY      1220   73      CALM  /  1 1016.6S
ACE BASIN NERRS  1145   71     360/  1     1016.0
FORT PULASKI     1242   76 80   30/  9/ 11 1016.3R
SAPELO ISLAND    1200   77        CALM     1015.0

$$

ANZ835-935-AMZ111-154-330-350-352-354-370-450-454-472-231400-
...C-MAN AND BUOY OBSERVATIONS...

STATION/POSITION TIME  TEMP    WIND        PRES    WAVE   SWELL
                       AIR SEA DIR/SP/G            HT/PER HT/PER/DIR
                 (UTC) (F)     (DEG/KT/KT) (MB)    (FT/S) (FT/S/D)
BUOY 41004       1250   80 82   40/ 14/ 17 1015.5R   8/11   7/160/11
BUOY 41008       1150   80 80   40/ 16/ 17 1014.3    5/14   3/130/14
FOLLY BEACH CMAN 1300   77      20/  9/ 11 1016.9R
CAPERS NEARSHORE 1208   76 81   30/ 12/ 16 1015.7
FRIPP NEARSHORE  1208   78      20/ 12/ 14 1022.4R


STATION/POSITION TIME  TEMP    WIND        PRES    WAVE   SWELL
                       AIR SEA DIR/SP/G            HT/PER HT/PER/DIR
                 (UTC) (F)     (DEG/KT/KT) (MB)    (FT/S) (FT/S/D)
5E ST. MARYS GA  1230      82                N/A     5/13   3/110/13
FRYING PAN BUOY  1300   80      20/ 10/ 14 1016.3
BUOY 41025       1250   77 76   70/  4/  4 1016.4R   8/14   8/160/14
CAPE LOOKOUT NC  1200   77     290/  6/  7 1016.3R
BUOY 41002       1250   79 79   60/ 17/ 19 1014.3F  10/13  10/120/13
BUOY 41010       1300           80/ 14/ 17 1013.6
ST AUGUSTINE FL  1300   80 82   30/ 15/ 16 1014.4R


$$



USA.gov is the U.S. government's official web portal to all federal, state and local government web resources and services.